Temp
4 3 3 3 3 7 5 8 11 4 4 9 10 11 7 5 4 4 4 5 6 6 6 5 5 4 4 2 2 2 1 -1 -0 1 -6 -5 -4 -2 -3 -2 -1 -1 -3 -1
4 4 4 3 3 5 4 7 8 4 4 11 11 5 5 5 4 4 4 5 5 5 5 4 5 4 3 2 2 1 1 1 1 1 -4 -4 -4 -4 -6 -5 -5 -3 -2 2
3 3 3 3 3 5 3 7 9 9 8 7 9 7 7 6 3 4 4 4 4 3 4 4 3 3 2 1 1 1 0 1 2 4 5 2 1 -3 -6 -5 -3 -1 -2 -1
3 3 4 3 3 4 4 6 8 5 11 9 7 6 7 6 5 3 4 4 4 4 4 4 3 3 2 1 1 1 0 -1 1 1 1 1 1 1 -1 -7 -4 -3 -1 -3
4 4 3 2 3 5 5 6 6 4 7 5 7 6 7 7 5 4 4 3 6 5 4 5 3 3 2 3 -0 0 -0 -0 0 -0 3 1 0 1 1 -1 -5 -5 -5 -5
4 5 2 2 3 5 6 3 3 4 7 5 6 9 8 7 7 6 5 4 4 4 5 3 4 3 3 2 1 1 -0 -1 0 2 2 2 2 2 2 1 -1 -4 -3 1
5 4 3 2 2 3 3 3 3 4 7 5 7 6 5 6 6 5 4 4 4 1 0 0 0 -0 -0 -0 1 1 -0 -2 -1 -0 2 4 2 2 2 2 2 -0 -2 -1
4 4 3 2 1 3 2 2 3 3 5 7 7 6 6 5 4 4 4 3 2 2 1 2 2 1 0 -1 -1 -1 -1 -2 -1 -1 1 4 4 2 -1 -1 1 3 2 2
4 4 3 2 1 2 2 1 1 1 2 6 5 6 5 6 5 4 2 -1 -0 1 3 3 5 8 3 4 -2 -3 -2 -3 -2 -1 -1 4 3 -0 -0 -1 1 3 2 2
4 4 3 2 1 1 1 1 1 0 2 5 4 5 5 4 3 4 2 -0 -1 1 3 4 6 7 1 4 3 -3 -3 -3 -3 -1 -0 3 3 -1 -1 1 4 3 2 1
5 4 2 2 1 1 1 1 1 -0 1 3 1 1 1 0 2 5 1 1 -1 -0 2 4 7 4 4 1 3 -0 0 -1 -0 -0 -0 0 0 -3 -0 3 1 2 1 1
5 4 2 1 1 0 1 1 1 -0 -1 2 -1 -1 -1 -1 -0 2 -1 1 1 3 3 3 4 3 1 2 5 -1 -0 2 4 2 5 1 -1 0 -1 -4 -3 -0 -1 -0
5 4 2 2 1 0 1 1 -0 -1 0 1 -1 -1 -2 -2 -2 -2 1 0 -2 -1 -4 2 2 1 3 3 2 3 -1 -2 -1 -1 4 0 -1 -3 -2 -4 -5 -4 -4 -5
5 4 2 2 1 1 1 0 -0 -0 1 1 2 -3 -3 -4 -4 -4 -3 -4 -6 -5 -2 -0 1 1 2 3 -1 -0 2 -4 -2 -2 -1 -1 -0 -0 -2 -3 -5 -7 -8 -9
5 4 2 2 2 1 1 0 -1 -1 1 2 2 -3 -5 -5 -4 -4 -4 -4 -4 -2 -2 -2 -1 0 -2 -2 -5 -2 -3 -2 -1 2 1 1 0 -5 -7 -8 -9 -9 -9 -9
4 3 2 2 2 2 1 2 -1 -1 -2 -0 2 -3 -5 -6 -4 -4 -4 -5 -4 -2 -2 -1 -2 -9 -5 -2 -0 1 -3 -4 -3 -0 -8 -7 -7 -7 -8 -8 -8 -9 -11 -12
3 2 2 1 1 1 1 1 -0 -1 -1 -0 1 2 -4 -5 -5 -4 -4 -6 -4 -3 -2 -4 -2 -4 -4 -3 -2 1 -2 -4 -5 -5 -8 -6 -6 -5 -12 -12 -12 -13 -14 -15
2 2 1 1 0 0 -1 -1 -2 -3 -1 -1 -1 1 -2 -5 -3 -4 -4 -4 -4 -4 -3 -5 -4 -5 -5 -4 -2 -2 -3 -5 -7 -7 -8 -6 -7 -12 -13 -14 -15 -14 -13 -13
2 1 0 0 -1 -1 -1 -2 -3 -3 -1 -0 -0 1 4 -5 -4 -4 -5 -4 -4 -5 -5 -4 -6 -3 -5 -3 -3 -2 -2 -4 -3 -6 -7 -9 -10 -9 -8 -9 -12 -13 -11 -10
1 1 -0 1 -1 -2 -3 -3 -2 -2 -2 -2 -2 1 -0 -3 -3 -3 -4 -5 -3 -4 -4 -6 -6 -4 -3 -3 -3 -3 -3 -4 -5 -5 -4 -4 -6 -6 -5 -6 -7 -8 -8 -7
1 -0 1 -3 -3 -3 -2 -2 -3 -1 -3 -2 -1 -1 -0 -4 -2 -2 -4 -3 -4 -3 -4 -6 -3 -3 -2 -2 -4 -3 -3 -3 -4 -5 -4 -3 -3 -3 -3 -3 -4 -6 -6 -7
-0 -1 -2 -4 -2 -2 -3 -1 -1 -3 0 -1 -1 -2 -2 -5 -5 -3 -7 -4 -6 -2 -7 -7 -3 -1 -1 -2 -2 -3 -3 -3 -3 -3 -3 -3 -3 -4 -5 -5 -5 -5 -6 -7
-1 -2 -2 -2 -1 -2 -1 2 1 0 -0 -3 -4 -3 -3 -6 -5 -6 -5 -4 -3 -8 -7 -3 -1 1 -1 -1 -2 -1 -0 -1 -2 -2 -3 -4 -5 -5 -6 -6 -6 -7 -7 -8
-0 1 2 -0 0 -1 2 2 2 -0 -1 -3 -3 -3 -3 -3 -4 -4 -3 -5 -7 -4 -4 -1 1 0 0 1 0 -0 1 0 -2 -3 -3 -4 -5 -6 -6 -7 -7 -8 -8 -8
-0 -1 0 1 1 -0 -0 -2 -2 -2 -2 -3 -3 -3 -3 -3 -3 -4 -6 -6 -4 -2 1 3 3 2 1 -0 -1 0 -0 -1 -2 -3 -4 -5 -6 -7 -7 -8 -9 -9 -9 -9
-1 -1 -1 0 -2 1 -1 -2 -2 -4 -4 -3 -3 -2 -2 -2 -2 -4 -3 -0 1 3 -0 1 2 -0 -1 -1 -1 1 -1 -2 -3 -5 -6 -7 -8 -8 -8 -9 -10 -10 -10 -10
0 -0 -1 -1 -1 -0 1 1 1 -4 -4 -2 -2 -1 3 -3 -2 -3 -1 -0 3 3 2 1 0 -0 -1 -1 -1 -1 -1 -3 -5 -6 -7 -8 -9 -10 -11 -11 -11 -11 -11 -11
Height
878 874 869 865 860 853 849 845 836 845 847 842 836 829 846 855 856 860 858 857 850 848 852 852 853 853 856 865 867 862 867 872 859 845 881 880 876 865 867 856 849 847 858 830
877 874 870 866 861 856 853 848 844 846 846 829 831 851 853 854 858 856 858 855 856 857 856 857 850 855 861 866 867 866 865 860 847 839 876 876 874 875 883 880 879 856 849 803
877 874 869 866 862 857 855 851 842 842 843 846 840 845 845 850 859 856 858 856 858 861 857 856 856 856 861 866 867 870 872 860 849 824 814 833 836 863 880 875 861 836 838 818
877 874 869 867 863 858 856 855 847 852 831 839 843 849 843 845 849 857 857 855 854 854 853 849 854 854 858 866 867 868 869 864 846 842 836 832 831 833 843 878 856 851 819 833
876 873 870 866 863 859 859 858 858 858 846 850 845 847 840 839 845 850 852 855 844 849 852 844 852 851 856 851 868 866 868 857 850 839 818 832 829 822 824 834 856 852 844 841
875 872 870 867 863 861 860 861 861 861 845 848 845 833 833 838 840 842 844 848 848 848 846 850 850 852 853 853 857 860 864 861 850 824 823 821 808 799 805 812 820 834 828 799
874 872 870 868 865 864 864 862 862 861 845 848 838 840 842 840 841 842 847 849 849 856 859 860 858 859 860 860 856 857 859 868 859 841 823 799 798 800 800 800 801 810 815 806
873 871 869 867 865 864 864 863 863 860 851 841 836 837 839 842 844 844 844 848 853 856 857 851 846 846 855 858 862 864 864 866 857 853 828 789 785 798 811 811 793 786 792 792
870 869 868 867 865 863 863 862 863 862 859 839 842 838 839 836 837 842 847 856 857 856 849 843 831 803 829 827 859 871 867 872 865 855 844 788 784 805 808 810 793 784 788 788
866 866 866 866 865 863 863 862 861 862 858 842 844 840 837 840 842 836 847 853 856 856 842 834 820 806 841 821 827 862 864 865 863 847 834 796 785 806 810 793 775 783 787 788
861 862 863 864 863 862 862 861 860 863 857 844 843 844 845 845 842 831 847 849 853 855 845 828 812 824 821 836 816 834 833 842 835 834 827 809 795 812 801 777 783 782 784 786
856 857 859 861 861 861 860 860 858 859 860 845 841 840 841 842 841 839 844 839 839 835 833 833 824 824 834 827 805 831 828 808 794 806 773 782 788 781 785 790 789 784 786 786
851 853 855 857 859 860 860 859 857 857 855 841 839 836 837 838 838 840 839 839 840 841 844 835 833 832 820 813 815 805 819 823 817 813 764 777 782 784 783 787 788 786 787 788
847 849 851 854 856 857 857 857 855 856 855 849 831 835 836 835 836 837 839 839 842 843 844 839 833 828 823 809 818 815 798 822 809 800 782 778 773 773 776 779 781 784 786 787
846 848 848 852 854 854 854 853 850 851 853 842 831 833 833 834 835 837 838 840 841 840 841 840 836 829 834 827 835 808 801 793 792 767 766 768 768 777 780 781 781 781 783 783
846 847 849 850 852 852 854 850 848 848 850 848 833 833 832 834 835 837 838 840 840 838 836 834 834 845 839 824 804 774 783 783 779 770 783 782 780 780 779 779 777 778 779 779
847 848 850 850 849 851 852 849 849 848 850 848 834 819 833 834 835 837 838 840 839 838 835 837 831 835 837 823 800 767 775 778 778 778 783 775 772 770 775 776 776 777 776 776
848 849 849 849 848 848 847 845 845 847 849 847 836 816 828 834 831 832 837 836 838 837 832 836 832 835 832 814 772 770 772 775 775 774 774 767 770 773 773 774 775 774 772 770
852 851 849 850 848 847 846 844 844 845 850 838 829 816 798 832 830 832 837 835 832 838 832 830 834 817 810 771 767 765 763 764 760 764 766 768 769 765 765 766 767 768 763 764
853 853 852 846 847 846 846 843 843 843 841 838 825 815 813 824 827 827 832 834 824 825 827 832 828 797 769 764 760 759 756 757 760 761 755 755 757 756 754 755 756 756 755 755
855 853 850 847 845 845 843 840 840 833 832 823 817 814 812 825 818 817 828 821 825 818 821 827 802 784 755 749 751 750 752 752 751 752 749 748 748 746 746 746 747 749 749 750
856 854 849 847 845 843 844 830 830 830 812 812 812 813 816 824 824 819 831 820 829 807 831 826 795 755 746 747 746 746 746 746 744 743 742 742 742 743 743 743 743 743 744 746
853 851 848 845 840 842 830 809 808 813 808 815 816 815 818 825 825 825 823 820 812 833 826 795 762 742 743 744 744 740 738 739 738 736 736 737 738 738 739 738 739 740 741 743
854 847 836 835 827 829 810 808 805 811 812 814 813 814 815 815 819 816 809 820 827 812 805 770 744 740 739 738 738 736 731 730 732 730 730 731 733 733 734 735 736 737 739 741
853 849 836 824 818 819 816 817 815 813 813 814 814 813 812 810 812 813 818 820 803 782 752 738 733 735 737 737 736 732 727 725 725 725 725 727 729 729 730 732 733 736 738 741
849 840 832 824 826 813 814 813 809 810 813 813 811 805 806 797 794 804 794 776 758 737 746 736 733 734 733 731 729 725 722 721 720 722 723 724 725 727 728 730 733 736 738 741
835 828 827 825 822 814 806 802 799 807 808 800 801 799 772 793 787 785 769 759 734 729 730 732 731 729 726 724 723 720 718 717 718 719 720 722 723 724 727 730 733 736 739 741
Wind_Speed
16 17 18 20 23 25 11 4 2 1 4 3 2 1 2 3 3 1 1 2 2 2 2 4 3 3 2 3 2 5 2 3 6 2 3 2 2 2 1 3 1 4 4 8
15 16 17 19 20 23 9 4 2 1 2 3 2 2 1 1 3 3 3 3 4 0 2 3 4 3 2 6 3 2 2 3 6 4 2 3 5 4 0 1 1 6 4 6
13 16 16 18 19 19 6 3 2 2 3 1 3 2 2 2 1 2 2 1 2 2 4 6 3 4 2 5 5 1 1 4 8 7 12 9 9 6 8 4 3 2 10 16
13 15 17 18 20 19 3 1 1 2 2 2 1 1 3 4 4 4 6 4 10 5 3 4 4 4 4 6 3 4 3 5 10 15 20 18 17 16 10 11 9 7 4 8
13 16 16 16 18 16 3 3 3 1 3 2 3 3 5 6 3 7 5 6 0 10 6 3 4 3 4 5 6 5 3 4 9 8 7 6 12 15 14 15 14 17 19 22
13 15 13 13 16 12 3 1 1 2 2 2 1 2 1 2 4 6 1 7 3 8 10 6 7 6 7 6 5 7 3 4 5 5 2 14 13 12 17 9 10 6 7 10
11 13 11 11 13 12 4 2 1 2 3 4 4 1 2 3 6 3 2 4 4 4 6 3 2 1 3 6 9 8 3 4 3 7 12 4 3 2 1 12 13 15 17 17
12 12 11 9 10 10 4 3 1 1 4 4 7 8 6 3 3 5 4 5 3 6 2 3 3 3 3 4 2 6 7 4 3 4 6 13 4 5 4 5 9 8 16 15
12 12 11 9 9 9 6 3 2 0 3 1 3 3 3 3 4 2 3 2 3 3 2 2 3 3 3 3 5 2 5 5 4 1 4 4 3 6 3 2 5 8 8 8
14 13 10 10 8 9 5 3 2 1 3 2 2 4 3 3 0 1 2 4 4 3 3 3 4 3 1 3 4 6 4 5 10 9 6 9 4 9 6 3 3 2 7 7
19 13 10 10 8 8 5 4 4 2 3 6 4 3 3 2 3 3 5 2 2 3 4 3 3 4 2 3 3 5 8 7 5 5 6 8 13 9 5 2 1 1 4 7
21 13 10 10 7 6 5 2 3 5 6 4 5 7 9 5 4 1 5 2 3 4 4 2 2 4 2 3 4 3 4 6 2 8 6 3 17 3 8 1 2 4 5 6
21 12 10 10 8 6 5 3 4 2 4 5 2 4 6 10 7 6 3 3 1 2 2 1 1 6 1 4 6 4 6 4 4 3 4 16 13 15 11 7 8 5 6 6
21 13 9 9 9 8 8 4 6 2 4 4 1 1 2 4 5 5 4 4 5 4 1 2 3 4 3 3 3 5 3 10 7 8 19 16 13 14 11 6 7 6 6 5
16 10 8 8 10 11 11 14 13 11 4 3 5 1 2 1 4 5 4 7 4 2 2 3 4 2 2 1 2 8 8 7 7 7 0 3 1 2 1 3 5 7 5 4
12 7 8 7 8 12 5 3 3 7 8 2 4 3 3 3 5 6 6 6 2 2 2 3 2 2 2 3 4 6 12 6 5 3 2 3 4 4 5 5 7 5 5 7
7 5 7 7 11 10 4 3 1 4 5 2 5 3 3 6 4 3 3 2 1 2 1 3 2 3 4 3 5 4 7 11 11 8 1 10 10 4 2 5 5 7 7 9
3 4 4 6 13 10 7 8 8 6 4 3 4 3 2 8 3 3 2 3 3 3 2 1 3 3 4 6 15 10 6 6 8 10 11 14 3 3 5 5 3 6 8 6
1 3 7 5 4 2 2 4 5 9 5 3 3 3 1 4 2 2 2 2 3 2 3 2 2 4 8 11 9 10 10 7 4 3 6 8 10 12 10 9 9 11 12 9
7 5 2 2 1 5 4 2 2 3 4 3 4 2 2 4 4 3 3 2 2 3 2 2 4 5 16 15 14 12 10 8 5 6 9 9 9 10 11 12 12 12 11 10
3 2 2 2 3 2 2 2 3 3 4 4 3 4 2 2 3 3 2 1 2 3 3 3 3 5 5 5 9 11 12 12 12 14 13 12 11 11 10 9 9 12 13 12
8 8 5 3 2 1 3 4 2 5 3 3 2 1 0 2 2 2 2 2 1 3 2 2 4 5 7 6 6 6 8 10 12 14 14 13 13 13 10 10 11 12 12 10
7 4 2 1 2 4 6 5 3 3 2 4 3 2 2 2 2 2 2 4 3 0 2 4 5 5 5 5 4 8 8 11 12 12 14 13 14 12 12 12 11 10 9 10
2 3 5 5 4 5 3 4 4 3 2 3 3 2 3 2 4 2 3 2 1 3 4 6 3 4 3 3 4 6 12 10 11 12 10 8 7 9 9 11 9 9 10 11
4 2 5 5 4 4 4 2 3 2 2 4 2 2 3 3 3 3 2 2 5 6 5 3 2 2 3 5 8 14 11 9 9 6 4 4 5 6 7 6 7 9 9 11
3 6 4 4 3 5 3 3 4 4 3 1 2 2 3 6 3 4 8 3 7 3 4 4 3 3 6 8 8 11 9 7 5 4 3 2 3 5 4 6 8 9 10 10
4 4 4 7 8 8 9 8 3 9 5 4 3 5 6 2 3 5 5 6 3 2 3 4 6 9 9 6 8 10 10 5 4 2 2 2 2 5 7 6 8 9 8 8
Wind_Direction
340 343 346 347 349 355 352 309 302 130 152 257 240 270 35 100 160 204 231 278 270 272 331 276 266 274 244 171 198 303 110 300 271 346 83 48 289 294 282 309 347 306 263 279
341 339 345 348 351 357 331 327 359 231 137 283 184 130 202 246 179 210 190 228 245 135 257 275 236 259 97 174 228 312 140 199 294 194 150 172 231 174 229 59 242 239 292 296
332 337 348 347 348 352 350 318 299 155 191 212 310 205 209 217 231 215 199 236 204 203 240 224 284 255 183 205 237 232 223 265 248 269 302 315 283 184 198 208 262 286 243 280
331 333 342 345 346 347 356 11 8 22 290 126 311 269 184 182 219 222 205 221 225 199 275 232 230 228 228 195 230 210 254 267 279 278 281 283 276 273 226 201 229 245 308 288
324 328 334 347 348 354 20 338 341 243 297 280 255 195 216 220 172 173 213 229 300 212 233 251 295 281 226 276 177 214 197 276 309 290 280 296 275 269 252 230 231 254 264 277
316 328 334 348 353 5 350 14 359 310 168 194 211 240 309 270 179 187 341 220 224 232 255 306 302 261 270 269 215 218 237 298 322 274 290 300 275 251 223 217 201 205 236 279
315 321 332 344 346 8 350 343 345 270 285 248 229 276 248 243 228 278 132 207 227 97 107 105 112 122 240 234 226 246 236 238 269 294 315 259 80 80 340 232 254 222 257 272
302 313 320 330 332 352 353 309 257 274 277 285 270 248 247 251 218 232 242 197 65 148 217 277 270 196 204 187 224 227 235 231 273 275 283 277 289 191 180 187 283 256 240 266
289 295 309 310 314 337 343 302 250 194 310 265 336 283 225 249 218 205 169 110 165 206 252 243 268 283 36 188 173 228 196 247 249 202 283 278 73 159 146 154 260 179 216 272
272 283 287 293 295 319 334 282 277 252 259 250 225 244 265 150 117 276 128 163 176 231 213 237 241 259 24 260 229 179 187 207 227 234 258 276 136 150 155 280 27 192 231 272
267 276 263 272 280 307 338 285 275 245 266 277 220 227 192 159 223 215 127 158 197 185 219 239 221 237 173 248 256 187 191 186 203 210 238 262 139 136 205 30 133 314 259 269
255 257 250 248 262 278 316 285 294 267 241 283 245 240 244 262 329 156 177 330 163 206 239 249 302 239 199 279 280 195 239 227 229 213 239 109 181 234 212 116 276 259 262 266
242 238 234 237 241 245 272 280 285 270 281 267 248 231 224 234 228 224 225 204 97 170 12 317 318 252 230 232 226 232 223 167 240 349 252 236 225 241 248 217 232 264 257 261
230 230 224 228 231 234 266 257 270 222 284 281 244 208 207 223 215 214 236 120 109 99 188 238 252 254 188 273 315 256 298 153 213 257 277 277 264 243 252 246 241 240 251 237
226 236 214 223 241 230 252 279 272 232 207 293 303 234 180 205 188 184 168 159 149 167 170 205 230 269 259 204 288 245 179 201 196 231 188 286 19 57 344 208 225 226 220 238
224 232 207 223 235 241 297 277 250 205 193 273 289 100 150 131 158 157 162 165 149 196 215 212 230 87 247 268 256 249 192 223 237 281 17 308 297 272 225 247 231 229 233 230
241 207 220 227 237 229 203 261 69 173 185 261 285 236 124 148 137 150 160 180 190 234 221 226 255 193 215 253 246 254 204 233 244 246 268 280 223 248 156 233 269 274 269 256
256 237 247 240 200 241 265 266 259 213 230 247 264 250 206 177 170 176 176 179 197 201 279 184 227 154 228 254 242 255 240 241 252 241 211 250 314 259 232 223 237 248 250 230
293 242 182 240 244 257 328 282 215 211 244 257 226 244 316 169 123 91 163 243 216 88 243 215 177 212 229 233 248 241 231 212 220 194 218 236 242 264 259 231 235 242 256 238
224 206 294 248 231 281 300 244 216 197 207 239 256 260 210 195 171 163 179 203 235 235 185 134 229 255 261 258 248 252 244 227 229 272 269 229 247 246 255 245 248 241 253 250
283 284 261 289 264 271 228 257 226 176 240 215 236 249 207 193 195 187 211 202 182 251 128 231 248 262 243 227 229 245 251 246 240 235 255 271 275 279 283 274 249 248 247 238
266 272 275 295 249 229 266 231 212 219 258 181 240 151 292 139 274 188 174 229 185 257 129 245 256 252 249 262 259 245 242 244 248 243 252 258 260 264 266 267 263 257 243 228
269 261 260 235 159 245 218 224 199 256 211 187 177 184 172 150 192 98 189 210 232 146 219 241 241 279 280 275 268 266 246 249 261 260 250 255 258 265 256 260 258 247 228 210
274 264 257 217 192 254 256 309 338 17 316 192 191 149 209 165 188 164 222 104 220 244 242 237 239 248 271 253 239 264 272 259 254 257 247 231 250 264 257 249 243 217 204 188
268 227 254 236 285 279 278 290 280 208 232 168 193 207 219 198 218 204 118 189 241 225 237 232 233 205 281 300 290 286 279 264 264 249 219 237 250 250 253 219 203 192 184 176
242 234 276 246 281 264 242 237 246 167 189 238 243 280 252 229 206 186 214 224 231 233 220 245 228 236 249 254 274 293 267 253 257 221 227 244 252 235 206 168 175 178 174 171
232 240 247 271 289 284 307 327 266 158 162 207 179 221 241 104 201 230 203 222 239 231 244 239 239 264 263 267 280 295 272 252 207 191 200 232 164 147 144 158 167 159 158 157